Regional Weather Roundup
Issued by NWS Goodland, KS

Home | Current Version | Previous Version | Graphics & Text | Print | Product List | Glossary On
Versions: 1 2 3 4 5 6 7 8 9 10 11 12 13 14 15 16 17 18 19 20 21 22 23 24 25 26 27 28 29 30 31 32 33 34 35 36 37 38 39 40 41 42 43 44 45 46 47 48 49 50
683
ASUS43 KGLD 081908
RWRGLD

GOODLAND FORECAST AREA HOURLY WEATHER ROUNDUP
NATIONAL WEATHER SERVICE GOODLAND KS
1200 PM MST THU DEC 08 2016

...OFFICIAL OBSERVATIONS...

CITY           SKY/WX    TMP DP  RH WIND       PRES   REMARKS
GOODLAND KS    SUNNY     13   1  59 VRB3      30.55F
HILL CITY KS   SUNNY     21   6  52 N9        30.65F
IMPERIAL NEB   SUNNY     13   0  56 N6        30.56F
MCCOOK NEB     SUNNY     13   2  61 W9        30.63F
AKRON CO       SUNNY     12   0  58 SE9       30.43F
BURLINGTON CO  SUNNY     17   1  49 NE6       30.49F
LIMON CO       CLOUDY    17  10  74 S13       30.37F WCI   4
$$

...UNOFFICIAL OBSERVATIONS...

CITY           SKY/WX    TMP DP  RH WIND       PRES   REMARKS
COLBY KS       SUNNY     18   7  62 N6        30.59F
LENORA KS        N/A     18  32 100 MISG        N/A
NORTON KS      SUNNY     18   1  49 W10       30.64  WCI   6
SHARON SPRINGS   N/A     16   5  62 CALM        N/A
TRENTON NEB      N/A     13  32 100 CALM        N/A
KIT CARSON CO    N/A     19   1  45 MISG        N/A
YUMA CO        FAIR      10  -4  52 SE3       30.49F
$$




USA.gov is the U.S. government's official web portal to all federal, state and local government web resources and services.